FW2445 Weather Reports


time (UTC)temp
C
wind
direction
speed
KPH
gust
KPH
rain 1hr
cm
rain 24hr
cm
rain mn
cm
humidity
%
barometer
mb
20260505034515 18 26 0.0 0.0 0.00 0.00 0.00 69 1007.1
20260505033017 18 26 0.0 0.0 0.00 0.00 0.00 69 1007.2
20260505031516 18 26 0.0 0.0 0.00 0.00 0.00 68 1007.3
20260505030016 18 26 0.0 0.0 0.00 0.00 0.00 68 1007.1
20260505024515 18 26 0.0 0.0 0.00 0.00 0.00 69 1007.0
20260505023022 18 26 0.0 0.0 0.00 0.00 0.00 68 1006.6
20260505021516 19 26 0.0 0.0 0.00 0.00 0.00 68 1006.5
20260505020014 20 26 0.0 0.0 0.00 0.00 0.00 67 1006.3
20260505014515 20 26 0.0 0.0 0.00 0.00 0.00 66 1006.2
20260505013014 21 26 0.0 0.0 0.00 0.00 0.00 66 1006.1
20260505011514 21 26 0.0 0.0 0.00 0.00 0.00 65 1005.9
20260505010013 21 26 0.0 0.0 0.00 0.00 0.00 62 1005.9
20260505004519 22 26 0.0 0.0 0.00 0.00 0.00 60 1005.9
20260505003013 22 26 0.0 0.0 0.00 0.00 0.00 58 1005.8
20260505001513 23 359 0.0 0.0 0.00 0.00 0.00 57 1006.0
20260505000020 23 56 0.0 0.0 0.00 0.00 0.00 59 1006.0
20260504234510 23 17 0.0 0.0 0.00 0.00 0.00 55 1006.2
20260504233012 23 354 0.0 0.0 0.00 0.00 0.00 53 1006.2
20260504231510 24 4 0.0 0.0 0.00 0.00 0.00 53 1006.5
20260504230008 24 4 0.0 0.0 0.00 0.00 0.00 51 1006.7
20260504224506 25 60 0.0 0.0 0.00 0.00 0.00 51 1006.9
20260504223008 25 242 0.0 0.0 0.00 0.00 0.00 50 1006.9
20260504221507 25 345 0.0 0.0 0.00 0.00 0.00 50 1007.1
20260504220005 25 323 0.0 0.0 0.00 0.00 0.00 49 1007.1
20260504214506 26 33 0.0 0.0 0.00 0.00 0.00 48 1007.3
20260504213042 26 327 0.0 1.6 0.00 0.00 0.00 48 1007.5
20260504211539 25 359 0.0 0.0 0.00 0.00 0.00 48 1007.6
20260504210018 26 354 0.0 0.0 0.00 0.00 0.00 47 1007.8
20260504204516 26 22 0.0 1.6 0.00 0.00 0.00 47 1008.1
20260504203011 26 73 0.0 0.0 0.00 0.00 0.00 45 1008.4
20260504201507 26 52 0.0 0.0 0.00 0.00 0.00 46 1008.6
20260504200047 26 45 0.0 0.0 0.00 0.00 0.00 45 1008.9
20260504194549 26 35 0.0 1.6 0.00 0.00 0.00 46 1009.1
20260504181517 25 22 0.0 1.6 0.00 0.00 0.00 48 1010.3
20260504180008 24 43 0.0 1.6 0.00 0.00 0.00 48 1010.2
20260504174505 24 341 0.0 6.4 0.00 0.00 0.00 47 1010.6
20260504173004 24 326 0.0 1.6 0.00 0.00 0.00 49 1010.9
20260504171507 24 18 0.0 3.2 0.00 0.00 0.00 48 1011.1
20260504081558 13 359 0.0 0.0 0.00 0.00 0.00 42 1012.2
20260504050132 15 359 0.0 0.0 0.00 0.00 0.00 58 1013.3
20260504043029 15 359 0.0 0.0 0.00 0.00 0.00 61 1013.3
20260504041528 15 359 0.0 0.0 0.00 0.00 0.00 64 1013.4